CDT,Max TemperatureF,Mean TemperatureF,Min TemperatureF,Max Dew PointF,MeanDew PointF,Min DewpointF,Max Humidity, Mean Humidity, Min Humidity, Max Sea Level PressureIn, Mean Sea Level PressureIn, Min Sea Level PressureIn, Max VisibilityMiles, Mean VisibilityMiles, Min VisibilityMiles, Max Wind SpeedMPH, Mean Wind SpeedMPH, Max Gust SpeedMPH,PrecipitationIn, CloudCover, Events, WindDirDegrees
2012-3-1,41,38,34,32,31,30,90,80,68,29.89,29.82,29.70,10,10,5,22,13,29,0.00,7,,250
2012-3-2,49,42,35,43,35,32,93,86,79,29.74,29.48,29.23,10,9,3,29,11,43,0.17,5,Rain-Thunderstorm,55
2012-3-3,34,32,31,29,25,22,86,74,63,29.84,29.74,29.65,10,9,3,29,20,38,0.00,8,Snow,264
2012-3-4,36,32,27,26,23,21,82,73,55,29.91,29.86,29.82,10,10,10,14,10,20,0.00,7,Snow,273
2012-3-5,38,30,22,24,20,18,85,68,51,30.39,30.27,30.01,10,10,10,13,7,17,0.00,2,,279
2012-3-6,68,48,29,36,29,24,83,51,28,30.27,30.08,29.94,10,10,10,36,17,48,0.00,0,,175
2012-3-7,69,60,51,47,37,28,54,45,41,30.05,30.00,29.91,10,10,10,34,22,48,0.00,6,,184
2012-3-8,61,48,36,54,36,24,93,74,46,30.24,30.05,29.83,10,9,3,25,18,38,0.37,5,Rain,276
2012-3-9,41,36,31,27,17,6,79,49,24,30.53,30.43,30.26,10,10,10,18,13,25,0.00,0,,304
2012-3-10,59,42,24,27,21,18,76,49,26,30.53,30.42,30.26,10,10,10,23,10,30,0.00,0,,168
2012-3-11,68,50,33,37,30,26,75,48,22,30.30,30.24,30.12,10,10,10,17,8,24,0.00,0,,180
2012-3-12,72,62,52,56,53,42,94,74,49,30.04,29.88,29.76,10,10,4,30,17,38,0.17,7,Rain,192
2012-3-13,70,54,37,49,40,31,100,66,23,30.12,30.06,29.95,10,8,1,9,4,,0.00,0,,242
2012-3-14,81,66,52,59,53,41,88,64,40,30.07,30.02,29.94,10,10,7,24,11,32,0.00,2,,188
2012-3-15,82,71,60,61,58,53,90,68,37,30.05,30.01,29.96,10,10,10,18,12,25,0.00,2,,217
2012-3-16,81,66,52,58,53,49,95,65,33,30.10,30.05,30.02,10,9,3,17,7,23,0.00,1,,185
2012-3-17,79,66,52,59,54,50,94,67,38,30.12,30.07,29.99,10,9,3,14,8,20,0.00,0,Thunderstorm,157
2012-3-18,80,68,57,59,57,55,91,70,47,30.10,30.04,29.97,10,10,10,17,6,24,0.01,4,Rain,170
2012-3-19,81,72,62,62,58,55,84,67,42,30.05,29.99,29.92,10,10,10,20,10,28,0.00,3,Thunderstorm,175
2012-3-20,82,72,62,55,52,47,71,47,32,30.05,30.01,29.95,10,10,10,25,13,36,0.00,1,,161
2012-3-21,84,72,60,56,53,47,77,52,29,30.12,30.07,30.02,10,10,10,17,8,23,0.00,1,,153
2012-3-22,81,70,59,58,54,51,76,59,38,30.11,30.07,30.01,10,10,10,18,7,25,0.00,2,Rain,152
2012-3-23,68,62,54,62,58,50,93,83,73,30.03,29.93,29.81,10,9,3,17,6,23,0.68,7,Rain-Thunderstorm,125
2012-3-24,66,58,50,56,52,48,94,82,62,29.91,29.84,29.79,10,9,4,14,5,18,0.10,5,,340
2012-3-25,71,62,52,56,53,50,94,77,54,30.06,30.01,29.94,10,7,2,14,6,20,0.00,5,Rain,3
2012-3-26,54,46,39,43,34,26,80,65,35,30.36,30.28,30.14,10,10,10,21,13,28,0.00,7,Rain,38
2012-3-27,72,54,37,46,32,22,62,47,35,30.26,30.11,29.86,10,10,10,26,16,36,0.00,1,,145
2012-3-28,71,62,53,54,44,31,85,56,23,29.95,29.90,29.83,10,10,4,29,13,39,0.15,1,Rain-Thunderstorm,266
2012-3-29,55,46,38,39,36,33,89,70,49,30.14,30.07,30.01,10,10,10,18,8,24,0.00,1,,43
2012-3-30,66,54,41,54,46,35,83,73,57,29.95,29.78,29.69,10,10,10,18,12,25,0.00,5,Rain-Thunderstorm,86
2012-3-31,55,48,40,42,38,36,87,78,59,29.99,29.94,29.88,10,10,10,13,8,16,0.00,8,,58